Date,TemperatureHighF,TemperatureAvgF,TemperatureLowF,DewpointHighF,DewpointAvgF,DewpointLowF,HumidityHigh,HumidityAvg,HumidityLow,PressureMaxIn,PressureMinIn,WindSpeedMaxMPH,WindSpeedAvgMPH,GustSpeedMaxMPH,PrecipitationSumIn
2013-11-1,53.0,47.4,45.2,52.0,44.2,41.0,98,89,82,29.73,29.21,56,27,56,2.09
2013-11-2,48.2,44.7,41.6,45.0,40.7,37.0,99,87,69,30.15,29.70,25,6,25,0.17
2013-11-3,51.3,42.7,37.4,39.0,35.4,33.0,94,75,51,30.39,30.15,22,6,22,0.06
2013-11-4,53.5,45.8,39.2,43.0,36.0,33.0,85,69,52,30.39,30.21,31,12,31,0.00
2013-11-5,55.3,53.2,51.8,50.0,47.1,43.0,89,81,68,30.34,30.07,30,11,32,0.01
2013-11-6,55.9,50.0,43.1,54.0,46.9,35.0,100,90,68,30.09,29.78,40,17,40,0.82
2013-11-7,43.1,40.0,36.2,36.0,32.7,29.0,92,73,65,30.23,30.04,42,18,42,0.16
2013-11-8,43.1,40.3,38.8,33.0,29.4,26.0,73,64,58,30.34,30.09,34,10,34,0.01
2013-11-9,51.8,48.9,43.1,46.0,39.6,31.0,80,71,54,30.10,29.82,59,26,59,15.84
2013-11-10,46.6,43.7,42.5,37.0,33.5,31.0,72,67,59,30.32,29.96,57,20,57,28.26
2013-11-11,47.0,37.9,27.0,39.0,31.8,21.0,94,78,66,30.43,30.05,41,16,41,0.15
2013-11-12,33.2,30.0,25.6,24.0,22.3,18.0,86,71,58,30.63,30.43,38,11,38,0.01
2013-11-13,41.4,36.9,32.7,32.0,26.6,23.0,70,65,59,30.55,30.13,52,27,52,2.92
2013-11-14,48.7,43.7,41.0,38.0,33.3,29.0,73,66,60,30.20,29.96,49,29,51,0.40
2013-11-15,47.3,46.0,44.2,40.0,37.0,35.0,77,71,62,30.04,29.94,41,20,41,0.00
2013-11-16,56.8,49.5,41.1,54.0,44.2,33.0,96,82,68,30.04,29.65,37,11,37,0.30
2013-11-17,65.4,55.2,44.3,77.0,52.8,39.0,99,91,78,29.70,29.05,80,23,80,27.48
2013-11-18,46.4,38.7,35.3,40.0,31.3,26.0,81,74,67,30.22,29.56,58,25,58,12.42
2013-11-19,40.5,35.9,31.9,31.0,26.6,24.0,77,68,59,30.41,30.21,33,7,33,0.00
2013-11-20,43.9,36.9,30.6,35.0,26.4,24.0,83,66,47,30.39,30.20,32,9,32,0.01
2013-11-21,48.1,44.4,37.6,45.0,40.7,35.0,98,87,74,30.26,30.18,19,8,19,0.06
2013-11-22,45.5,38.6,34.5,44.0,33.6,26.0,95,82,68,30.45,30.19,31,12,32,0.01
2013-11-23,36.3,25.1,16.9,26.0,19.4,16.0,91,77,53,30.61,30.32,47,15,47,0.49
2013-11-24,30.4,23.2,16.4,21.0,15.7,14.0,93,71,54,30.65,30.31,42,16,45,0.21
2013-11-25,35.4,32.6,28.5,32.0,25.5,18.0,96,75,54,30.37,30.01,48,33,48,1.70
2013-11-26,37.9,33.9,26.0,32.0,26.3,16.0,84,73,58,30.09,29.98,39,17,39,0.00
2013-11-27,29.4,25.2,21.1,21.0,17.3,14.0,85,70,58,30.25,30.07,33,8,33,0.00
2013-11-28,32.6,25.7,22.0,26.0,21.1,16.0,95,81,66,30.47,30.22,26,7,26,0.00
2013-11-29,33.3,28.7,25.8,24.0,22.9,21.0,88,76,65,30.66,30.46,21,6,21,0.00
2013-11-30,44.5,37.2,29.6,39.0,29.3,23.0,83,72,61,30.49,30.07,29,12,29,0.00